Location: Sungai Igah
(2.7333°N, 114.2500°E)
Time: 11:36:36
(UTC+00:00)

Cosmos 1271 Rocket - Pass Details

Date: 14 June 2021
Orbit: 498 x 543 km, 81.2° (Epoch: 04 August)

Event Time Altitude Azimuth Distance (km) Brightness Sun altitude
Rises 21:12:30 0° 329° (NNW) 2,581 6.2 -15.1°
Reaches altitude 10° 21:15:04 10° 311° (NW) 1,706 5.1 -14.5°
Enters shadow 21:16:44 17° 286° (WNW) 1,336 4.3 -14.1°
